Regional Weather Roundup
Issued by NWS

Home | Current Version | Previous Version | Text Only | Print | Product List | Glossary On
Versions: 1 2 3 4 5 6 7 8 9 10 11 12 13 14 15 16 17 18 19 20 21 22 23 24 25 26 27 28 29 30 31 32 33 34 35 36 37 38 39 40 41 42 43 44 45 46 47 48 49 50
000
ASUS46 KSTO 190215
RWRCA

NORTHERN AND CENTRAL CA REGIONAL WEATHER ROUNDUP
NATIONAL WEATHER SERVICE SACRAMENTO CA
600 PM PST WED JAN 18 2017

NOTE: FAIR INDICATES FEW OR NO CLOUDS BELOW 12,000 FEET WITH NO
SIGNIFICANT WEATHER AND/OR OBSTRUCTIONS TO VISIBILITY.

CAZ001-003-190300-
NORTHWEST AREA

CITY           SKY/WX    TMP DP  RH WIND       PRES   REMARKS
CRESCENT CITY  LGT RAIN  51  49  92 S20G26    29.55R
UKIAH          RAIN      50  46  86 SE9       29.67S FOG
$$

CAZ006-505>513-190300-
BAY AREA

CITY           SKY/WX    TMP DP  RH WIND       PRES   REMARKS
SANTA ROSA     HVY RAIN  50  49  96 S16G26    29.66R VSB 1
SAN RAFAEL     N/A       51  MM  MM MISG
NAPA           HVY RAIN  51  48  89 SE8       29.71F FOG
CONCORD        LGT RAIN  52  46  80 S14       29.69F
OAKLAND CITY   N/A       52  MM  MM MISG
OAKLAND        LGT RAIN  53  49  86 SE31G40   29.71F
SAN FRAN CITY  N/A       51  MM  97 MISG
SAN FRAN ARPT  RAIN      52  48  86 SE16      29.71F FOG
LIVERMORE      CLOUDY    51  43  74 SE7       29.72F
HAYWARD        CLOUDY    54  45  71 SE25G35   29.71F
REDWOOD CITY   N/A       51  MM  94 MISG
MOFFETT ARPT   LGT RAIN  52  47  83 SE24G33   29.74F
SAN JOSE ARPT  LGT RAIN  52  47  83 SE31G44   29.74F
$$
CAZ034-037-514>518-190300-
CENTRAL COAST

CITY           SKY/WX    TMP DP  RH WIND       PRES   REMARKS
WATSONVILLE    RAIN      50  50 100 NE6       29.82F FOG
SALINAS        CLOUDY    53  47  79 SE32G44   29.79F
MONTEREY       CLOUDY    58  47  66 E12G24    29.77F
SAN LUIS OBISP CLOUDY    54  49  83 SE12      29.95F
SANTA MARIA    LGT RAIN  51  49  92 SE14G23   29.97F
$$
CAZ015-016-190300-
NORTHERN SACRAMENTO VALLEY

CITY           SKY/WX    TMP DP  RH WIND       PRES   REMARKS
REDDING        LGT RAIN  47  44  90 S25G49    29.68F
RED BLUFF      RAIN      47  45  93 S23G31    29.73S FOG
OROVILLE       LGT RAIN  47  44  90 SE7       29.73F
$$
CAZ016>018-190300-
SOUTHERN SACRAMENTO VALLEY

CITY           SKY/WX    TMP DP  RH WIND       PRES   REMARKS
AUBURN         CLOUDY    46  43  87 SE15G28   29.73F
BEALE AFB      CLOUDY    48  48 100 S20       29.71F
LINCOLN        CLOUDY    46  41  81 S26G35    29.72F
MARYSVILLE     LGT RAIN  49  42  77 S25G32    29.74F
SAC INTL ARPT  LGT RAIN  49  45  86 SE43G56   29.71F
MATHER AIRPORT CLOUDY    48  45  87 S33G40    29.75F
DOWNTOWN SAC   N/A       49  MM  MM MISG
SAC EXEC ARPT  LGT RAIN  49  45  86 SE25G45   29.74F
VACAVILLE      RAIN      48  47  96 SE26G45   29.74F FOG
$$
CAZ019>021-190300-
SAN JOAQUIN VALLEY

CITY           SKY/WX    TMP DP  RH WIND       PRES   REMARKS
STOCKTON       LGT RAIN  48  46  93 SE30G49   29.82F
MODESTO        LGT RAIN  50  42  74 SE28G36   29.84F
MERCED         CLOUDY    48  43  82 SE28G36   29.91F
LEMOORE        RAIN      49  45  86 E22       29.97F
FRESNO         RAIN      48  44  86 E20       29.97F
HANFORD        LGT RAIN  49  47  93 E9        30.03F
PORTERVILLE    RAIN      50  44  80 E10       30.05F
BAKERSFIELD    LGT RAIN  51  45  79 E7        30.03F
$$
CAZ011-012-071-190300-
NORTHERN MOUNTAINS

CITY           SKY/WX    TMP DP  RH WIND       PRES   REMARKS
YREKA          CLOUDY    39  31  72 S33G43    29.56F WCI  27
MOUNT SHASTA   SNOW      33  31  92 E6        29.64F VSB 1/2 WCI  28
ALTURAS        CLOUDY    38  34  85 S9        29.61S WCI  31
$$
CAZ011-012-071-190300-
SIERRA NEVADA MTNS

CITY           SKY/WX    TMP DP  RH WIND       PRES   REMARKS
BLUE CANYON    LGT RAIN  33  33 100 SE9G25    29.73F WCI  25
TRUCKEE        RAIN      36  32  87 S13G22    29.72F WCI  27
TAHOE VLY ARPT LGT SNOW  36  32  85 S20G28    29.72F FOG     WCI  25
MAMMOTH LAKES  CLOUDY    30  28  93 E6        29.89R WCI  24
$$




USA.gov is the U.S. government's official web portal to all federal, state and local government web resources and services.